FW7828 Weather Reports


time (UTC)temp
C
wind
direction
speed
KPH
gust
KPH
rain 1hr
cm
rain 24hr
cm
rain mn
cm
humidity
%
barometer
mb
20260905085759 22 32 0.0 0.0 0.00 0.00 0.00 92 1009.3
20260905085259 22 320 0.0 1.6 0.00 0.00 0.00 91 1009.1
20260905084754 22 191 0.0 0.0 0.00 0.00 0.00 91 1008.8
20260905084254 22 244 0.0 0.0 0.00 0.00 0.00 90 1009.0
20260905083748 22 165 1.6 1.6 0.00 0.00 0.00 90 1008.9
20260905083243 22 185 1.6 3.2 0.00 0.00 0.00 91 1009.1
20260905082739 22 82 0.0 0.0 0.00 0.00 0.00 91 1009.1
20260905082236 22 63 0.0 0.0 0.00 0.00 0.00 90 1009.0
20260905081736 22 93 0.0 0.0 0.00 0.00 0.00 90 1009.0
20260905081231 22 352 1.6 1.6 0.00 0.00 0.00 90 1009.0
20260905080731 22 55 0.0 0.0 0.00 0.00 0.00 90 1009.2
20260905080231 22 103 1.6 1.6 0.00 0.00 0.00 90 1009.2
20260905075730 22 73 0.0 0.0 0.00 0.00 0.00 91 1009.3
20260905075229 22 59 0.0 0.0 0.00 0.00 0.00 91 1009.2
20260905074728 22 31 0.0 0.0 0.00 0.00 0.00 92 1009.5
20260905074224 22 123 0.0 0.0 0.00 0.00 0.00 92 1009.2
20260905073719 22 130 4.8 4.8 0.00 0.00 0.00 92 1009.3
20260905073215 22 151 0.0 1.6 0.00 0.00 0.00 92 1009.3
20260905072714 22 96 0.0 0.0 0.00 0.00 0.00 92 1009.5
20260905072209 22 36 0.0 0.0 0.00 0.00 0.00 92 1009.2
20260905071706 22 339 0.0 1.6 0.00 0.00 0.00 92 1009.1
20260905071202 22 98 0.0 0.0 0.00 0.00 0.00 92 1009.1
20260905070656 22 187 1.6 1.6 0.00 0.00 0.00 92 1008.9
20260905070152 22 26 0.0 0.0 0.00 0.00 0.00 92 1009.0
20260905065651 22 224 0.0 0.0 0.00 0.00 0.00 92 1009.0
20260905065145 22 63 0.0 0.0 0.00 0.00 0.00 92 1008.9
20260905064640 22 30 0.0 0.0 0.00 0.00 0.00 92 1009.1
20260905064136 22 45 0.0 0.0 0.00 0.00 0.00 92 1009.3
20260905063634 22 338 0.0 0.0 0.00 0.00 0.00 91 1009.2
20260905063131 22 299 1.6 1.6 0.00 0.00 0.00 91 1009.3
20260905062627 22 70 0.0 0.0 0.00 0.00 0.00 91 1009.3
20260905062126 22 272 1.6 1.6 0.00 0.00 0.00 91 1009.4
20260905061621 22 99 1.6 1.6 0.00 0.00 0.00 91 1009.5
20260905061120 22 218 0.0 0.0 0.00 0.00 0.00 91 1009.4
20260905060616 22 41 0.0 0.0 0.00 0.00 0.00 90 1009.6
20260905060113 23 70 0.0 1.6 0.00 0.00 0.00 89 1009.5
20260905055611 23 31 1.6 3.2 0.00 0.00 0.00 88 1009.6
20260905055106 23 43 0.0 0.0 0.00 0.00 0.00 87 1009.5
20260905054602 23 269 0.0 0.0 0.00 0.00 0.00 87 1009.7
20260905054057 22 161 4.8 4.8 0.00 0.00 0.00 89 1010.0
20260905053556 22 72 0.0 0.0 0.00 0.00 0.00 91 1010.1
20260905053052 22 251 0.0 1.6 0.00 0.00 0.00 92 1010.1
20260905052551 22 62 1.6 1.6 0.00 0.00 0.00 92 1010.4
20260905052046 22 181 0.0 0.0 0.00 0.00 0.00 93 1010.2
20260905051541 22 155 0.0 0.0 0.00 0.00 0.00 93 1010.6
20260905051038 22 221 0.0 0.0 0.00 0.00 0.00 93 1010.4
20260905050533 22 161 3.2 3.2 0.00 0.00 0.00 94 1010.4
20260905050031 22 142 1.6 3.2 0.00 0.00 0.00 95 1010.4
20260905045525 22 43 1.6 1.6 0.00 0.00 0.00 95 1010.8
20260905045021 22 78 0.0 0.0 0.00 0.00 0.00 95 1010.8
20260905044520 22 130 1.6 3.2 0.00 0.00 0.00 96 1010.7
20260905044015 22 345 0.0 1.6 0.00 0.00 0.00 95 1010.5
20260905043514 22 351 1.6 3.2 0.00 0.00 0.00 95 1010.4
20260905043009 22 57 0.0 0.0 0.00 0.00 0.00 95 1010.6
20260905042508 23 316 3.2 3.2 0.00 0.00 0.00 95 1010.4
20260905041958 23 39 0.0 1.6 0.00 0.00 0.00 95 1010.6
20260905041453 23 131 3.2 4.8 0.00 0.00 0.00 95 1010.5
20260905040949 23 350 1.6 1.6 0.00 0.00 0.00 95 1010.4
20260905040448 23 189 1.6 3.2 0.00 0.00 0.00 95 1010.6
20260905035947 23 43 0.0 0.0 0.00 0.71 0.71 95 1010.9
20260905035442 23 288 0.0 1.6 0.00 0.71 0.71 95 1010.8
20260905034940 23 253 3.2 4.8 0.00 0.71 0.71 96 1010.8
20260905034435 23 172 6.4 8.0 0.00 0.71 0.71 96 1011.2
20260905033933 23 291 1.6 1.6 0.00 0.71 0.71 96 1011.1
20260905033428 23 273 0.0 0.0 0.00 0.71 0.71 96 1010.7
20260905032928 23 331 0.0 1.6 0.00 0.71 0.71 96 1010.7
20260905032423 23 237 3.2 3.2 0.00 0.71 0.71 96 1010.6
20260905031918 24 189 0.0 1.6 0.00 0.71 0.71 96 1010.6
20260905031414 24 275 1.6 1.6 0.00 0.71 0.71 96 1010.2
20260905030909 24 320 1.6 1.6 0.00 0.71 0.71 96 1010.1
20260905030400 24 88 0.0 0.0 0.00 0.71 0.71 96 1009.9
20260905025858 24 195 0.0 0.0 0.00 0.71 0.71 96 1010.1
20260905025354 24 134 0.0 0.0 0.00 0.71 0.71 96 1010.2
20260905024850 24 58 0.0 0.0 0.00 0.71 0.71 96 1010.1
20260905024350 23 352 0.0 0.0 0.00 0.71 0.71 96 1010.2
20260905023846 23 29 0.0 0.0 0.00 0.71 0.71 96 1010.7
20260905023341 23 302 0.0 1.6 0.00 0.71 0.71 96 1011.1
20260905022839 23 325 0.0 0.0 0.00 0.71 0.71 96 1010.9
20260905022335 23 340 0.0 0.0 0.00 0.71 0.71 96 1011.1
20260905021830 24 295 1.6 1.6 0.00 0.71 0.71 96 1011.2
20260905021325 24 181 1.6 3.2 0.13 0.71 0.71 96 1011.7
20260905020820 23 275 0.0 0.0 0.43 0.71 0.71 96 1012.4
20260905020315 23 86 0.0 0.0 0.61 0.69 0.69 96 1012.3
20260905015814 23 125 1.6 1.6 0.61 0.66 0.66 95 1013.0
20260905015314 23 126 1.6 1.6 0.43 0.61 0.61 95 1013.6
20260905014813 23 56 0.0 0.0 0.18 0.53 0.53 95 1014.0
20260905014309 22 258 0.0 1.6 0.30 0.53 0.53 94 1014.2
20260905013804 22 98 3.2 4.8 0.13 0.51 0.51 94 1014.3
20260905013300 22 207 0.0 0.0 0.00 0.48 0.48 94 1014.1
20260905012755 22 116 0.0 0.0 0.00 0.48 0.48 94 1014.3
20260905012251 22 338 0.0 1.6 0.18 0.48 0.48 94 1014.1
20260905011747 22 47 1.6 1.6 0.18 0.48 0.48 94 1014.3
20260905011243 22 34 0.0 1.6 0.18 0.46 0.46 94 1014.1
20260905010737 23 44 1.6 3.2 0.30 0.46 0.46 94 1014.0
20260905010232 23 82 1.6 1.6 0.30 0.43 0.43 94 1013.6
20260905005729 23 49 4.8 4.8 0.30 0.41 0.41 94 1013.6
20260905005225 23 35 3.2 3.2 0.30 0.38 0.38 93 1013.6
20260905004719 23 3 6.4 9.7 0.30 0.36 0.36 93 1013.7
20260905004214 23 129 1.6 3.2 0.13 0.33 0.33 92 1013.4
20260905003714 23 127 0.0 1.6 0.13 0.33 0.33 93 1013.1
20260905003210 23 97 3.2 4.8 0.00 0.30 0.30 93 1013.0
20260905002706 23 242 1.6 3.2 0.18 0.30 0.30 93 1013.3
20260905002205 23 325 1.6 3.2 0.18 0.30 0.30 94 1012.8
20260905001701 23 60 0.0 0.0 0.00 0.28 0.28 93 1012.7
20260905001159 23 55 1.6 1.6 0.00 0.28 0.28 93 1012.6
20260905000655 24 30 3.2 3.2 0.30 0.28 0.28 92 1012.6
20260905000151 24 14 4.8 4.8 0.71 0.28 0.28 92 1012.8
20260904235651 24 36 4.8 8.0 0.43 0.23 0.23 92 1012.9
20260904235150 24 36 3.2 3.2 0.36 0.15 0.15 92 1013.1
20260904234645 25 43 1.6 1.6 0.48 0.15 0.15 92 1013.0
20260904234141 25 32 3.2 3.2 0.13 0.10 0.10 93 1013.4
20260904233637 25 63 4.8 4.8 0.00 0.08 0.08 95 1013.2
20260904233132 25 335 1.6 1.6 0.00 0.08 0.08 95 1011.4
20260904232629 25 257 1.6 1.6 0.00 0.08 0.08 95 1011.5
20260904232125 25 4 0.0 0.0 0.00 0.08 0.08 95 1011.6
20260904231620 25 290 0.0 0.0 0.00 0.08 0.08 94 1011.3
20260904231115 25 339 3.2 3.2 0.00 0.08 0.08 94 1011.5
20260904230614 25 45 0.0 0.0 0.00 0.08 0.08 94 1011.6
20260904230110 25 45 0.0 0.0 0.00 0.08 0.08 94 1011.6
20260904225607 25 40 0.0 1.6 0.00 0.08 0.08 93 1012.0
20260904225102 25 338 1.6 1.6 0.00 0.08 0.08 93 1012.5
20260904224557 25 286 1.6 1.6 0.00 0.08 0.08 93 1012.3
20260904224052 25 39 0.0 0.0 0.00 0.08 0.08 93 1011.9
20260904223551 25 227 0.0 0.0 0.00 0.08 0.08 93 1011.6
20260904223047 25 156 0.0 0.0 0.00 0.08 0.08 93 1011.8
20260904222542 25 251 1.6 1.6 0.00 0.08 0.08 93 1011.6
20260904222038 25 293 0.0 1.6 0.00 0.08 0.08 93 1011.2
20260904221532 25 55 0.0 0.0 0.00 0.08 0.08 92 1011.4
20260904221027 25 47 0.0 0.0 0.00 0.08 0.08 92 1011.2
20260904220526 25 346 1.6 1.6 0.00 0.08 0.08 91 1011.4
20260904220022 25 9 1.6 1.6 0.00 0.08 0.08 91 1011.6
20260904215522 25 72 0.0 1.6 0.30 0.08 0.08 90 1011.6
20260904215018 26 250 1.6 1.6 0.48 0.08 0.08 87 1012.0
20260904214513 27 331 1.6 1.6 0.18 0.03 0.03 82 1011.6
20260904214008 27 51 0.0 0.0 0.00 0.00 0.00 79 1011.7
20260904213506 27 353 4.8 4.8 0.00 0.00 0.00 77 1011.8
20260904213004 28 19 1.6 1.6 0.00 0.00 0.00 76 1011.9
20260904212502 28 21 1.6 1.6 0.00 0.00 0.00 77 1011.4
20260904211957 28 351 4.8 9.7 0.00 0.00 0.00 80 1011.5
20260904211452 30 358 11.3 12.9 0.00 0.00 0.00 85 1011.4
20260904210948 30 350 1.6 1.6 0.00 0.00 0.00 87 1011.0
20260904210447 30 348 0.0 0.0 0.00 0.00 0.00 85 1010.7
20260904205943 30 255 0.0 0.0 0.00 0.00 0.00 85 1011.0
20260904205438 30 256 0.0 0.0 0.00 0.00 0.00 85 1011.6
20260904204935 30 356 0.0 0.0 0.00 0.00 0.00 87 1011.6
20260904204430 31 3 1.6 1.6 0.00 0.00 0.00 86 1011.3
20260904203927 31 345 0.0 1.6 0.00 0.00 0.00 85 1010.6
20260904203423 31 10 0.0 0.0 0.00 0.00 0.00 84 1010.1
20260904202918 32 351 1.6 1.6 0.00 0.00 0.00 82 1010.1
20260904202414 32 10 0.0 0.0 0.00 0.00 0.00 80 1009.9
20260904201910 33 2 0.0 0.0 0.00 0.00 0.00 78 1010.8
20260904201405 33 267 0.0 0.0 0.00 0.00 0.00 74 1010.5
20260904200855 35 253 0.0 0.0 0.00 0.00 0.00 74 1010.5
20260904200353 34 328 0.0 1.6 0.00 0.00 0.00 72 1010.6
20260904195848 33 201 4.8 4.8 0.00 0.00 0.00 71 1010.5
20260904195346 34 205 4.8 4.8 0.00 0.00 0.00 69 1010.4
20260904194841 34 148 1.6 1.6 0.00 0.00 0.00 70 1010.8
20260904194341 34 142 1.6 3.2 0.00 0.00 0.00 69 1011.0
20260904193836 35 171 1.6 3.2 0.00 0.00 0.00 70 1011.1
20260904193331 35 183 4.8 4.8 0.00 0.00 0.00 68 1011.0
20260904192826 35 153 4.8 4.8 0.00 0.00 0.00 70 1011.1
20260904192321 35 357 0.0 1.6 0.00 0.00 0.00 69 1011.2
20260904191819 35 164 3.2 3.2 0.00 0.00 0.00 67 1011.3
20260904191315 36 282 1.6 1.6 0.00 0.00 0.00 64 1011.5
20260904190811 36 267 1.6 3.2 0.00 0.00 0.00 66 1011.5
20260904190306 35 5 0.0 0.0 0.00 0.00 0.00 65 1011.5
20260904185802 35 4 0.0 0.0 0.00 0.00 0.00 68 1011.6
20260904185257 34 180 1.6 1.6 0.00 0.00 0.00 69 1012.0
20260904184756 33 178 3.2 4.8 0.00 0.00 0.00 71 1011.9
20260904184251 34 123 4.8 4.8 0.00 0.00 0.00 70 1011.8
20260904183747 35 164 4.8 4.8 0.00 0.00 0.00 68 1011.9
20260904183242 35 144 0.0 0.0 0.00 0.00 0.00 66 1012.0
20260904182737 35 157 6.4 8.0 0.00 0.00 0.00 65 1012.1
20260904182233 35 183 4.8 4.8 0.00 0.00 0.00 67 1012.5
20260904181728 35 184 1.6 3.2 0.00 0.00 0.00 66 1012.3
20260904181227 35 164 1.6 1.6 0.00 0.00 0.00 68 1012.4
20260904180723 35 166 3.2 3.2 0.00 0.00 0.00 67 1012.5
20260904180218 34 49 0.0 1.6 0.00 0.00 0.00 66 1012.7
20260904175717 33 137 6.4 8.0 0.00 0.00 0.00 68 1012.5
20260904175216 33 119 6.4 11.3 0.00 0.00 0.00 70 1012.6
20260904174711 33 169 1.6 4.8 0.00 0.00 0.00 71 1012.7
20260904174207 33 197 4.8 4.8 0.00 0.00 0.00 72 1012.6
20260904173702 33 196 3.2 3.2 0.00 0.00 0.00 71 1012.6
20260904173157 33 175 1.6 3.2 0.00 0.00 0.00 71 1012.8
20260904172654 33 178 3.2 3.2 0.00 0.00 0.00 71 1012.8
20260904172153 33 176 3.2 4.8 0.00 0.00 0.00 68 1012.8
20260904171648 33 186 0.0 1.6 0.00 0.00 0.00 69 1012.7
20260904171143 33 165 4.8 4.8 0.00 0.00 0.00 74 1013.0
20260904170640 32 163 3.2 3.2 0.00 0.00 0.00 75 1012.8
20260904170135 32 90 4.8 4.8 0.00 0.00 0.00 74 1013.0
20260904165634 33 142 4.8 4.8 0.00 0.00 0.00 72 1012.9
20260904165133 33 178 1.6 3.2 0.00 0.00 0.00 72 1013.3
20260904164633 33 95 1.6 3.2 0.00 0.00 0.00 71 1013.1
20260904164129 33 151 3.2 3.2 0.00 0.00 0.00 70 1013.5
20260904163624 33 214 4.8 4.8 0.00 0.00 0.00 70 1013.3
20260904163120 33 139 4.8 8.0 0.00 0.00 0.00 70 1013.4
20260904162614 33 75 1.6 1.6 0.00 0.00 0.00 71 1013.5
20260904162109 32 138 1.6 1.6 0.00 0.00 0.00 70 1013.6
20260904161604 32 202 1.6 1.6 0.00 0.00 0.00 72 1013.8
20260904161059 32 248 1.6 1.6 0.00 0.00 0.00 70 1013.4
20260904160554 32 166 3.2 4.8 0.00 0.00 0.00 71 1013.6
20260904160050 32 156 3.2 4.8 0.00 0.00 0.00 73 1013.6
20260904155550 31 173 1.6 3.2 0.00 0.00 0.00 75 1013.5
20260904155044 31 190 3.2 4.8 0.00 0.00 0.00 75 1013.8
20260904154538 31 158 3.2 3.2 0.00 0.00 0.00 74 1013.4
20260904154033 31 159 4.8 4.8 0.00 0.00 0.00 75 1013.6
20260904153532 31 211 4.8 4.8 0.00 0.00 0.00 74 1013.6
20260904153029 31 188 1.6 3.2 0.00 0.00 0.00 74 1013.6
20260904152524 31 93 1.6 1.6 0.00 0.00 0.00 74 1013.6
20260904152020 31 89 3.2 3.2 0.00 0.00 0.00 74 1013.4
20260904151515 31 94 1.6 3.2 0.00 0.00 0.00 74 1013.7
20260904151014 31 112 1.6 1.6 0.00 0.00 0.00 75 1013.9
20260904150515 31 168 4.8 9.7 0.00 0.00 0.00 73 1013.7
20260904150009 31 166 0.0 1.6 0.00 0.00 0.00 75 1013.5
20260904145504 30 175 0.0 3.2 0.00 0.00 0.00 76 1013.4
20260904144959 30 139 1.6 1.6 0.00 0.00 0.00 76 1013.9
20260904144454 30 130 0.0 1.6 0.00 0.00 0.00 77 1013.6
20260904143950 30 197 4.8 4.8 0.00 0.00 0.00 78 1013.8
20260904143446 29 188 3.2 3.2 0.00 0.00 0.00 80 1013.8
20260904142942 29 138 3.2 3.2 0.00 0.00 0.00 80 1013.8
20260904142439 29 357 3.2 3.2 0.00 0.00 0.00 80 1013.7
20260904141933 29 162 0.0 0.0 0.00 0.00 0.00 81 1014.1
20260904141428 28 158 3.2 3.2 0.00 0.00 0.00 81 1013.7
20260904140925 28 124 0.0 1.6 0.00 0.00 0.00 82 1013.8
20260904140424 28 144 1.6 1.6 0.00 0.00 0.00 82 1013.7
20260904135923 28 56 3.2 3.2 0.00 0.00 0.00 81 1013.8
20260904135423 28 183 0.0 1.6 0.00 0.00 0.00 82 1013.6
20260904134920 28 177 3.2 4.8 0.00 0.00 0.00 83 1013.8
20260904134419 28 194 0.0 1.6 0.00 0.00 0.00 84 1013.9
20260904133914 28 180 3.2 4.8 0.00 0.00 0.00 84 1013.5
20260904133409 28 177 4.8 4.8 0.00 0.00 0.00 83 1013.6
20260904132904 28 166 3.2 3.2 0.00 0.00 0.00 84 1013.9
20260904132359 27 173 6.4 11.3 0.00 0.00 0.00 86 1013.8
20260904131858 27 239 3.2 3.2 0.00 0.00 0.00 86 1013.6
20260904131354 27 172 3.2 3.2 0.00 0.00 0.00 86 1013.8
20260904130849 27 199 3.2 3.2 0.00 0.00 0.00 86 1013.9
20260904130348 27 104 3.2 3.2 0.00 0.00 0.00 85 1013.6
20260904125843 27 121 1.6 1.6 0.00 0.00 0.00 86 1014.0
20260904125340 27 196 4.8 8.0 0.00 0.00 0.00 86 1013.7
20260904124839 27 196 1.6 1.6 0.00 0.00 0.00 86 1013.8
20260904124336 27 183 1.6 3.2 0.00 0.00 0.00 87 1014.0
20260904123830 26 166 0.0 1.6 0.00 0.00 0.00 87 1014.1
20260904123326 26 117 3.2 3.2 0.00 0.00 0.00 88 1014.1
20260904122821 26 24 0.0 0.0 0.00 0.00 0.00 88 1014.1
20260904122320 26 31 0.0 0.0 0.00 0.00 0.00 89 1014.3
20260904121816 26 124 3.2 3.2 0.00 0.00 0.00 89 1014.3
20260904121312 26 259 0.0 0.0 0.00 0.00 0.00 89 1014.2
20260904120808 26 129 4.8 4.8 0.00 0.00 0.00 90 1014.2
20260904120303 26 78 1.6 1.6 0.00 0.00 0.00 90 1014.4
20260904115758 26 202 0.0 1.6 0.00 0.00 0.00 90 1014.0
20260904115254 26 211 3.2 3.2 0.00 0.00 0.00 90 1013.8
20260904114748 26 349 0.0 1.6 0.00 0.00 0.00 90 1014.0
20260904114248 26 146 0.0 1.6 0.00 0.00 0.00 90 1014.0
20260904113743 26 301 0.0 1.6 0.00 0.00 0.00 91 1014.0
20260904113242 26 3 0.0 0.0 0.00 0.00 0.00 91 1014.2
20260904112737 26 43 4.8 8.0 0.00 0.00 0.00 91 1013.7
20260904112233 26 330 0.0 0.0 0.00 0.00 0.00 91 1013.8
20260904111729 26 158 1.6 3.2 0.00 0.00 0.00 91 1013.9
20260904111224 26 123 1.6 1.6 0.00 0.00 0.00 91 1013.9
20260904110720 26 98 0.0 0.0 0.00 0.00 0.00 91 1013.7
20260904110219 26 334 3.2 3.2 0.00 0.00 0.00 91 1013.8
20260904105714 26 212 1.6 1.6 0.00 0.00 0.00 91 1013.7
20260904105209 26 194 1.6 1.6 0.00 0.00 0.00 91 1013.7
20260904104704 26 166 1.6 1.6 0.00 0.00 0.00 91 1013.9
20260904104200 26 354 1.6 1.6 0.00 0.00 0.00 91 1013.6
20260904103656 26 248 3.2 3.2 0.00 0.00 0.00 91 1013.4
20260904103151 26 345 0.0 1.6 0.00 0.00 0.00 91 1013.6
20260904102647 26 323 3.2 3.2 0.00 0.00 0.00 91 1013.5
20260904102142 26 358 1.6 1.6 0.00 0.00 0.00 91 1013.6
20260904101639 26 326 1.6 3.2 0.00 0.00 0.00 91 1013.6
20260904101134 26 148 0.0 1.6 0.00 0.00 0.00 91 1013.9
20260904100630 26 101 1.6 3.2 0.00 0.00 0.00 91 1013.8
20260904100125 26 147 4.8 9.7 0.00 0.00 0.00 91 1013.8
20260904095619 26 316 1.6 3.2 0.00 0.00 0.00 92 1013.6
20260904095114 26 344 1.6 1.6 0.00 0.00 0.00 92 1013.7
20260904094609 26 291 0.0 1.6 0.00 0.00 0.00 91 1014.0
20260904094104 26 357 0.0 0.0 0.00 0.00 0.00 91 1013.6
20260904093601 26 342 0.0 0.0 0.00 0.00 0.00 91 1013.8
20260904093101 26 9 0.0 0.0 0.00 0.00 0.00 91 1013.6
20260904092557 26 229 1.6 3.2 0.00 0.00 0.00 91 1013.7
20260904092053 26 332 1.6 1.6 0.00 0.00 0.00 91 1013.9
20260904091549 26 143 4.8 4.8 0.00 0.00 0.00 91 1013.9
20260904091048 26 349 0.0 0.0 0.00 0.00 0.00 91 1013.9
20260904090544 26 294 1.6 1.6 0.00 0.00 0.00 90 1013.7
20260904090039 26 4 3.2 3.2 0.00 0.00 0.00 90 1013.5